Location: Aldenham
(51.6667°N, 0.3500°W)
Time: 17:10:15
(UTC+00:00)

Vanguard 2 Rocket - Pass Details

Date: 22 February 2026
Orbit: 553 x 3286 km, 32.9° (Epoch: 11 March)

Event Time Altitude Azimuth Distance (km) Brightness Sun altitude
Rises 15:52:20 0° 267° (W) 6,964 12.5 12.7°
Reaches altitude 10° 15:58:34 10° 256° (WSW) 5,599 12.6 11.9°
Maximum altitude 16:09:47 24° 212° (SSW) 3,653 11.2 10.4°
Drops below altitude 10° 16:17:45 10° 163° (SSE) 3,852 10.3 9.3°
Sets 16:21:05 0° 149° (SSE) 4,449 10.4 8.9°
